Time,TemperatureF,DewpointF,PressureIn,WindDirection,WindDirectionDegrees,WindSpeedMPH,WindSpeedGustMPH,Humidity,HourlyPrecipIn,Conditions,Clouds,dailyrainin,SoftwareType,DateUTC
2013-04-16 00:32:00,57.0,56.0,23.65,North,360,0.0,2.0,96,0.00,,,0.30,weatherlink.com 1.10,2013-04-16 02:32:00,
2013-04-16 00:49:00,57.0,56.0,23.65,North,360,0.0,2.0,96,0.00,,,0.30,weatherlink.com 1.10,2013-04-16 02:49:00,
2013-04-16 01:05:00,57.0,56.0,31.25,North,5,0.0,1.0,96,0.00,,,0.30,weatherlink.com 1.10,2013-04-16 03:05:00,
2013-04-16 01:22:00,57.1,56.0,31.25,North,360,2.0,3.0,96,0.00,,,0.30,weatherlink.com 1.10,2013-04-16 03:22:00,
2013-04-16 01:38:00,57.1,56.0,30.22,North,360,1.0,2.0,96,0.00,,,0.30,weatherlink.com 1.10,2013-04-16 03:38:00,
2013-04-16 01:54:00,57.1,56.0,30.22,North,5,2.0,3.0,96,0.00,,,0.30,weatherlink.com 1.10,2013-04-16 03:54:00,
2013-04-16 02:11:00,57.0,56.0,30.22,North,5,2.0,3.0,97,0.00,,,0.00,weatherlink.com 1.10,2013-04-16 04:11:00,
2013-04-16 02:27:00,57.0,56.0,30.22,North,5,0.0,1.0,97,0.00,,,0.00,weatherlink.com 1.10,2013-04-16 04:27:00,
2013-04-16 02:43:00,57.0,56.0,32.46,North,360,0.0,3.0,97,0.00,,,0.00,weatherlink.com 1.10,2013-04-16 04:43:00,
2013-04-16 02:59:00,57.0,56.0,26.36,North,5,1.0,2.0,97,0.00,,,0.00,weatherlink.com 1.10,2013-04-16 04:59:00,
2013-04-16 03:16:00,56.9,56.0,26.36,North,5,1.0,2.0,97,0.00,,,0.00,weatherlink.com 1.10,2013-04-16 05:16:00,
2013-04-16 03:32:00,56.9,56.0,32.00,North,5,0.0,0.0,97,0.00,,,0.00,weatherlink.com 1.10,2013-04-16 05:32:00,
2013-04-16 03:49:00,56.8,56.0,24.58,North,5,0.0,0.0,97,0.00,,,0.00,weatherlink.com 1.10,2013-04-16 05:49:00,
2013-04-16 04:05:00,56.8,56.0,32.00,North,5,0.0,2.0,97,0.00,,,0.00,weatherlink.com 1.10,2013-04-16 06:05:00,
2013-04-16 04:22:00,56.6,56.0,30.22,North,5,1.0,2.0,98,0.00,,,0.00,weatherlink.com 1.10,2013-04-16 06:22:00,
2013-04-16 04:38:00,56.5,56.0,30.22,North,5,2.0,3.0,98,0.00,,,0.00,weatherlink.com 1.10,2013-04-16 06:38:00,
2013-04-16 04:54:00,56.4,56.0,30.22,North,360,0.0,2.0,98,0.00,,,0.00,weatherlink.com 1.10,2013-04-16 06:54:00,
2013-04-16 05:10:00,56.5,56.0,30.22,North,5,1.0,2.0,98,0.00,,,0.00,weatherlink.com 1.10,2013-04-16 07:10:00,
2013-04-16 05:27:00,56.4,56.0,24.57,North,5,2.0,3.0,98,0.00,,,0.00,weatherlink.com 1.10,2013-04-16 07:27:00,
2013-04-16 05:44:00,56.4,56.0,24.58,North,5,1.0,3.0,98,0.00,,,0.00,weatherlink.com 1.10,2013-04-16 07:44:00,
2013-04-16 06:00:00,56.3,56.0,24.57,North,360,2.0,3.0,98,0.00,,,0.00,weatherlink.com 1.10,2013-04-16 08:00:00,
2013-04-16 06:16:00,56.3,56.0,30.22,North,5,1.0,3.0,98,0.00,,,0.00,weatherlink.com 1.10,2013-04-16 08:16:00,
2013-04-16 06:33:00,56.2,56.0,30.22,North,5,0.0,0.0,98,0.00,,,0.00,weatherlink.com 1.10,2013-04-16 08:33:00,
2013-04-16 06:49:00,56.2,56.0,30.22,North,360,0.0,0.0,98,0.00,,,0.00,weatherlink.com 1.10,2013-04-16 08:49:00,
2013-04-16 07:05:00,56.2,56.0,30.22,North,5,0.0,2.0,98,0.00,,,0.00,weatherlink.com 1.10,2013-04-16 09:05:00,
2013-04-16 07:22:00,56.2,56.0,24.58,North,360,0.0,2.0,98,0.00,,,0.00,weatherlink.com 1.10,2013-04-16 09:22:00,
2013-04-16 07:38:00,56.2,56.0,24.58,North,5,1.0,2.0,98,0.00,,,0.00,weatherlink.com 1.10,2013-04-16 09:38:00,
2013-04-16 07:54:00,56.2,56.0,24.58,North,5,2.0,3.0,98,0.00,,,0.00,weatherlink.com 1.10,2013-04-16 09:54:00,
2013-04-16 08:10:00,56.2,56.0,30.23,North,360,0.0,3.0,98,0.00,,,0.00,weatherlink.com 1.10,2013-04-16 10:10:00,
2013-04-16 08:27:00,56.2,56.0,30.23,North,5,0.0,0.0,98,0.00,,,0.00,weatherlink.com 1.10,2013-04-16 10:27:00,
2013-04-16 08:43:00,56.3,56.0,24.59,North,5,0.0,0.0,99,0.00,,,0.00,weatherlink.com 1.10,2013-04-16 10:43:00,
2013-04-16 08:59:00,56.3,56.0,30.24,ESE,111,2.0,2.0,99,0.00,,,0.00,weatherlink.com 1.10,2013-04-16 10:59:00,
2013-04-16 09:16:00,56.3,56.0,30.24,South,182,0.0,3.0,99,0.00,,,0.00,weatherlink.com 1.10,2013-04-16 11:16:00,
2013-04-16 09:32:00,56.5,56.0,30.25,South,182,0.0,0.0,98,0.00,,,0.00,weatherlink.com 1.10,2013-04-16 11:32:00,
2013-04-16 09:49:00,56.7,56.0,32.04,WSW,254,2.0,5.0,98,0.00,,,0.00,weatherlink.com 1.10,2013-04-16 11:49:00,
2013-04-16 10:05:00,56.9,57.0,32.04,WSW,256,2.0,4.0,99,0.00,,,0.00,weatherlink.com 1.10,2013-04-16 12:05:00,
2013-04-16 10:21:00,57.3,57.0,29.35,WNW,303,0.0,1.0,98,0.00,,,0.00,weatherlink.com 1.10,2013-04-16 12:21:00,
2013-04-16 10:38:00,57.7,57.0,30.28,WNW,294,2.0,2.0,98,0.00,,,0.00,weatherlink.com 1.10,2013-04-16 12:38:00,
2013-04-16 10:54:00,58.0,57.0,30.28,SW,227,2.0,3.0,98,0.00,,,0.00,weatherlink.com 1.10,2013-04-16 12:54:00,
2013-04-16 11:10:00,58.2,58.0,30.29,SW,220,1.0,3.0,98,0.00,,,0.00,weatherlink.com 1.10,2013-04-16 13:10:00,
2013-04-16 11:27:00,58.4,58.0,30.29,WSW,247,2.0,3.0,98,0.00,,,0.00,weatherlink.com 1.10,2013-04-16 13:27:00,
2013-04-16 11:43:00,58.5,58.0,32.08,West,264,2.0,4.0,98,0.00,,,0.00,weatherlink.com 1.10,2013-04-16 13:43:00,
2013-04-16 11:59:00,59.8,59.0,30.30,West,265,0.0,1.0,98,0.00,,,0.00,weatherlink.com 1.10,2013-04-16 13:59:00,
2013-04-16 12:16:00,60.8,60.0,30.30,North,355,0.0,3.0,97,0.00,,,0.00,weatherlink.com 1.10,2013-04-16 14:16:00,
2013-04-16 12:32:00,63.2,61.0,30.30,ESE,109,0.0,5.0,93,0.00,,,0.00,weatherlink.com 1.10,2013-04-16 14:32:00,
2013-04-16 12:49:00,64.1,61.0,30.30,ESE,111,1.0,5.0,89,0.00,,,0.00,weatherlink.com 1.10,2013-04-16 14:49:00,
2013-04-16 13:05:00,65.4,61.0,32.08,East,90,1.0,5.0,86,0.00,,,0.00,weatherlink.com 1.10,2013-04-16 15:05:00,
2013-04-16 13:22:00,66.9,62.0,29.38,ESE,119,0.0,4.0,83,0.00,,,0.00,weatherlink.com 1.10,2013-04-16 15:22:00,
2013-04-16 13:38:00,68.4,62.0,29.38,SW,217,0.0,8.0,81,0.00,,,0.00,weatherlink.com 1.10,2013-04-16 15:38:00,
2013-04-16 13:54:00,69.2,63.0,30.29,SSE,157,3.0,8.0,80,0.00,,,0.00,weatherlink.com 1.10,2013-04-16 15:54:00,
2013-04-16 14:10:00,69.7,62.0,30.29,West,267,3.0,6.0,77,0.00,,,0.00,weatherlink.com 1.10,2013-04-16 16:10:00,
2013-04-16 14:27:00,70.6,62.0,30.28,SW,235,0.0,5.0,73,0.00,,,0.00,weatherlink.com 1.10,2013-04-16 16:27:00,
2013-04-16 14:43:00,71.5,63.0,32.06,West,279,0.0,4.0,75,0.00,,,0.00,weatherlink.com 1.10,2013-04-16 16:43:00,
2013-04-16 14:59:00,72.9,63.0,30.27,East,99,2.0,6.0,72,0.00,,,0.00,weatherlink.com 1.10,2013-04-16 16:59:00,
2013-04-16 15:16:00,72.9,63.0,30.26,South,171,2.0,5.0,72,0.00,,,0.00,weatherlink.com 1.10,2013-04-16 17:16:00,
2013-04-16 15:32:00,73.5,63.0,30.25,SE,134,1.0,8.0,69,0.00,,,0.00,weatherlink.com 1.10,2013-04-16 17:32:00,
2013-04-16 15:49:00,74.0,63.0,30.25,ESE,115,0.0,7.0,69,0.00,,,0.00,weatherlink.com 1.10,2013-04-16 17:49:00,
2013-04-16 16:05:00,75.1,63.0,0.00,SE,133,3.0,8.0,65,0.00,,,0.00,weatherlink.com 1.10,2013-04-16 18:05:00,
2013-04-16 16:22:00,74.7,63.0,24.57,SE,145,2.0,9.0,67,0.00,,,0.00,weatherlink.com 1.10,2013-04-16 18:22:00,
2013-04-16 16:38:00,74.8,64.0,0.00,ESE,117,3.0,9.0,68,0.00,,,0.00,weatherlink.com 1.10,2013-04-16 18:38:00,
2013-04-16 16:54:00,75.0,63.0,24.56,ESE,119,3.0,8.0,66,0.00,,,0.00,weatherlink.com 1.10,2013-04-16 18:54:00,
2013-04-16 17:11:00,75.6,62.0,0.00,South,175,5.0,8.0,63,0.00,,,0.00,weatherlink.com 1.10,2013-04-16 19:11:00,
2013-04-16 17:27:00,75.7,64.0,0.00,SSE,156,6.0,7.0,66,0.00,,,0.00,weatherlink.com 1.10,2013-04-16 19:27:00,
2013-04-16 17:43:00,76.0,62.0,0.00,SE,146,3.0,9.0,63,0.00,,,0.00,weatherlink.com 1.10,2013-04-16 19:43:00,
2013-04-16 18:00:00,76.5,62.0,0.00,SE,141,1.0,6.0,61,0.00,,,0.00,weatherlink.com 1.10,2013-04-16 20:00:00,
2013-04-16 18:16:00,76.7,63.0,30.19,ESE,123,4.0,8.0,62,0.00,,,0.00,weatherlink.com 1.10,2013-04-16 20:16:00,
2013-04-16 18:32:00,76.9,63.0,30.19,SSE,153,4.0,8.0,62,0.00,,,0.00,weatherlink.com 1.10,2013-04-16 20:32:00,
2013-04-16 18:49:00,76.4,61.0,30.19,SE,138,3.0,10.0,60,0.00,,,0.00,weatherlink.com 1.10,2013-04-16 20:49:00,
2013-04-16 19:05:00,76.4,62.0,0.00,SE,134,1.0,8.0,61,0.00,,,0.00,weatherlink.com 1.10,2013-04-16 21:05:00,
2013-04-16 19:22:00,75.7,61.0,0.00,SSE,150,2.0,5.0,61,0.00,,,0.00,weatherlink.com 1.10,2013-04-16 21:22:00,
2013-04-16 19:38:00,75.7,61.0,0.00,SE,130,2.0,7.0,61,0.00,,,0.00,weatherlink.com 1.10,2013-04-16 21:38:00,
2013-04-16 19:54:00,75.3,61.0,0.00,South,176,1.0,8.0,62,0.00,,,0.00,weatherlink.com 1.10,2013-04-16 21:54:00,
2013-04-16 20:11:00,75.0,62.0,0.00,SSE,155,2.0,7.0,63,0.00,,,0.00,weatherlink.com 1.10,2013-04-16 22:11:00,
2013-04-16 20:27:00,75.3,61.0,0.00,South,182,4.0,9.0,62,0.00,,,0.00,weatherlink.com 1.10,2013-04-16 22:27:00,
2013-04-16 20:43:00,75.2,61.0,0.00,SSW,192,6.0,9.0,62,0.00,,,0.00,weatherlink.com 1.10,2013-04-16 22:43:00,
2013-04-16 20:59:00,74.6,61.0,0.00,South,175,0.0,8.0,63,0.00,,,0.00,weatherlink.com 1.10,2013-04-16 22:59:00,
2013-04-16 21:16:00,73.5,61.0,0.00,South,178,3.0,6.0,64,0.00,,,0.00,weatherlink.com 1.10,2013-04-16 23:16:00,
2013-04-16 21:32:00,72.7,61.0,0.00,SSW,192,1.0,5.0,66,0.00,,,0.00,weatherlink.com 1.10,2013-04-16 23:32:00,
2013-04-16 21:49:00,72.0,60.0,0.00,SSW,203,0.0,2.0,67,0.00,,,0.00,weatherlink.com 1.10,2013-04-16 23:49:00,
2013-04-16 22:05:00,71.1,60.0,0.00,North,360,0.0,0.0,69,0.00,,,0.00,weatherlink.com 1.10,2013-04-17 00:05:00,
2013-04-16 22:22:00,70.0,60.0,0.00,North,5,0.0,1.0,71,0.00,,,0.00,weatherlink.com 1.10,2013-04-17 00:22:00,
2013-04-16 22:38:00,69.1,60.0,0.00,North,5,0.0,0.0,73,0.00,,,0.00,weatherlink.com 1.10,2013-04-17 00:38:00,
2013-04-16 22:54:00,68.4,60.0,0.00,North,5,0.0,0.0,74,0.00,,,0.00,weatherlink.com 1.10,2013-04-17 00:54:00,
2013-04-16 23:10:00,68.3,60.0,0.00,North,5,0.0,0.0,75,0.00,,,0.00,weatherlink.com 1.10,2013-04-17 01:10:00,
2013-04-16 23:27:00,67.6,60.0,0.00,North,360,0.0,0.0,78,0.00,,,0.00,weatherlink.com 1.10,2013-04-17 01:27:00,
2013-04-16 23:43:00,66.5,60.0,0.00,North,5,0.0,0.0,79,0.00,,,0.00,weatherlink.com 1.10,2013-04-17 01:43:00,
2013-04-16 23:59:00,65.3,59.0,0.00,North,5,0.0,0.0,81,0.00,,,0.00,weatherlink.com 1.10,2013-04-17 01:59:00,